Theta_e
322 322 322 322 322 322 321 321 324 323 321 322 322 320 319 319 319 318 319 320 320 319 318 317 317 318 318 318 317 317 317 316 316 315 315 315 315 315 315 314 314 314 313 313 313 312 311 310 310 309 309 309 308 308 309 309 309 309 309 309 309 309 309 310 310 311 312 313 313 314 314 314 314 314 314 314 315 315 316 316 316 316 315 316 317 318 319
321 322 322 321 321 322 321 321 321 322 323 325 324 321 319 320 320 320 320 320 319 319 318 317 318 318 318 317 317 317 316 316 316 315 315 315 315 315 314 314 314 313 313 313 312 311 311 310 310 309 309 309 308 308 308 309 309 309 309 309 309 309 309 309 310 311 312 312 313 314 314 313 313 313 314 314 315 315 315 315 315 315 314 315 316 317 318
322 323 323 323 321 321 322 323 323 325 326 324 322 320 318 318 318 318 318 319 318 318 318 318 318 318 318 317 316 316 316 316 315 315 315 315 315 315 314 314 314 313 313 312 312 311 311 310 310 309 308 308 308 308 308 309 309 309 308 309 309 309 308 309 310 311 311 311 312 313 313 312 313 313 314 314 314 314 314 314 314 314 314 314 316 316 317
323 323 323 323 322 322 323 325 328 330 327 322 320 319 318 317 318 317 316 316 317 317 318 318 318 318 318 317 317 316 316 316 316 315 315 315 315 314 314 314 313 313 312 312 312 311 310 310 309 309 308 308 308 308 308 308 309 309 308 309 309 308 308 309 309 310 310 311 312 312 312 312 312 313 313 313 313 313 313 313 312 313 314 315 316 317 317
322 321 321 322 323 323 322 323 325 327 325 321 320 320 319 318 317 315 315 316 316 317 318 317 318 318 318 318 318 317 317 317 316 316 315 315 315 314 314 313 313 313 312 312 311 311 310 309 309 308 308 308 308 308 308 308 308 308 308 309 309 308 308 309 309 310 310 310 311 311 311 312 312 312 312 312 312 312 313 313 312 312 314 315 316 317 317
321 321 321 322 323 323 322 322 323 323 321 321 321 320 319 319 318 316 316 316 317 318 318 317 318 318 318 318 318 317 318 317 316 316 315 315 314 314 314 313 313 313 312 312 311 310 310 309 309 308 308 308 308 308 308 308 308 308 308 309 308 308 308 309 309 310 310 310 310 310 311 311 311 312 312 312 311 311 312 312 312 313 313 314 315 316 317
321 321 320 321 322 322 322 324 325 322 319 320 321 320 319 319 319 319 318 318 318 318 318 318 318 318 318 319 318 318 318 317 317 315 314 314 314 314 313 313 313 313 312 312 311 310 309 309 308 308 308 307 307 307 307 308 308 308 308 308 308 308 308 309 309 309 309 309 310 310 310 310 311 311 311 311 311 311 312 312 312 312 312 313 314 315 316
321 321 320 321 322 322 322 324 324 319 318 320 320 319 319 318 319 319 319 319 319 319 318 318 318 318 319 319 318 318 318 317 317 316 314 314 314 314 314 313 313 313 312 311 311 310 309 308 308 308 307 307 307 307 307 308 308 308 308 308 308 308 308 308 309 309 309 309 309 309 309 310 310 310 310 311 311 311 312 312 312 312 312 312 312 313 314
321 321 320 320 321 321 321 322 321 318 319 320 320 319 319 318 318 318 318 318 318 318 318 318 318 318 318 318 317 317 318 317 317 316 315 315 315 315 314 313 313 312 311 311 310 309 308 308 308 307 307 306 307 307 307 307 308 308 308 307 308 308 308 308 308 308 309 309 309 309 309 309 309 309 309 310 310 311 311 312 311 311 311 311 310 310 311
320 320 320 320 321 321 320 321 320 319 320 320 319 319 319 318 318 318 318 318 318 319 319 318 318 318 317 317 317 317 318 317 316 316 315 315 315 315 314 313 312 312 311 310 310 309 308 308 308 307 307 306 307 306 307 307 307 308 308 307 307 307 308 308 308 308 308 308 308 308 308 308 308 309 309 309 309 310 311 311 311 311 311 311 311 310 309
320 320 320 320 320 320 320 321 320 319 320 320 319 319 319 318 318 318 318 319 319 319 319 318 318 317 317 317 318 318 318 317 316 315 315 315 315 314 313 313 312 311 311 310 309 308 308 308 308 307 306 306 306 306 306 307 307 307 307 307 307 307 307 307 308 308 308 308 308 308 308 308 308 308 308 308 309 310 310 310 310 310 310 311 311 310 309
320 320 320 320 319 320 321 321 320 320 320 319 319 320 319 318 318 318 318 319 319 318 318 318 318 317 317 317 318 318 317 317 316 315 315 315 314 314 313 312 312 311 310 310 309 309 308 308 308 307 307 306 306 306 306 307 307 306 306 306 306 306 307 307 307 307 308 308 308 308 307 307 307 307 308 308 308 309 309 310 310 310 310 310 310 310 309
320 319 319 319 319 321 322 321 320 320 319 319 319 319 319 319 319 319 318 319 319 318 318 318 317 318 318 318 318 317 317 316 316 314 315 315 314 313 313 312 311 311 310 310 309 309 308 308 307 307 307 307 306 306 306 306 306 306 306 306 306 306 306 306 307 307 307 307 307 307 307 307 307 307 307 308 308 308 309 309 310 309 310 310 310 310 309
319 319 319 319 320 321 322 321 320 320 320 319 319 319 319 319 319 319 319 319 319 319 318 318 318 318 319 318 318 317 317 317 316 314 315 315 314 313 313 312 311 311 310 310 309 309 308 308 307 307 307 307 306 306 306 306 306 306 306 306 306 305 305 306 306 306 306 306 307 307 307 307 307 307 307 308 308 308 309 309 309 309 309 309 310 309 309
318 318 319 320 320 320 321 321 320 320 320 319 319 319 320 319 319 319 319 318 319 319 319 318 318 318 318 318 318 317 316 316 316 315 314 314 314 313 313 312 312 311 310 310 310 309 308 308 307 307 307 307 306 306 306 306 305 305 305 305 305 305 305 305 306 306 306 306 307 306 306 307 307 306 307 307 307 308 308 309 309 309 309 309 309 309 309
318 318 319 320 320 320 321 321 320 319 318 319 320 321 320 319 319 319 318 318 318 319 319 319 318 318 317 317 318 317 316 316 317 316 315 314 314 313 313 313 312 310 310 310 310 309 309 308 307 307 307 307 306 306 306 306 305 305 305 305 305 305 305 304 305 305 306 305 306 306 306 306 306 306 306 306 307 307 307 308 308 308 309 309 309 309 309
319 319 319 320 320 320 320 320 320 320 319 319 320 320 320 320 319 318 318 318 318 318 319 318 318 318 318 317 318 318 317 316 316 316 315 315 314 313 313 313 312 310 309 310 310 309 309 308 307 307 307 307 306 306 306 305 305 306 305 305 305 305 306 305 304 305 306 306 305 305 306 306 306 306 305 305 306 307 307 307 307 307 307 307 308 308 308
318 318 318 319 319 319 319 319 319 319 319 319 319 318 319 320 319 319 319 318 318 318 318 318 318 318 318 317 317 317 318 317 316 316 316 315 314 313 313 313 312 311 310 310 309 309 309 309 308 307 307 307 306 307 306 305 305 306 305 306 306 305 305 306 306 305 305 306 306 305 304 306 306 306 305 303 302 305 307 307 307 307 307 307 307 307 307
317 317 318 318 318 317 317 317 317 317 317 317 318 318 319 319 318 318 318 318 317 317 317 317 318 318 317 317 317 317 317 317 316 316 316 315 314 313 313 313 312 311 310 310 310 309 308 309 308 308 308 307 306 306 306 305 305 306 305 305 306 305 306 306 306 305 305 305 306 304 302 302 303 305 305 301 297 299 304 306 306 307 307 307 307 306 306
317 317 317 317 316 316 316 315 315 316 316 316 317 317 317 318 318 318 318 317 318 318 318 318 318 318 317 317 317 317 317 317 316 316 316 316 315 314 313 313 312 311 311 310 309 309 309 308 308 308 308 308 307 307 306 306 306 306 305 305 305 306 307 306 306 306 305 304 306 305 303 300 298 299 302 300 296 295 298 300 302 304 305 306 305 304 304
316 316 316 316 316 316 316 315 315 315 316 316 317 317 317 318 318 319 319 318 318 318 318 318 318 318 317 317 317 317 317 317 316 316 316 316 316 315 314 313 312 312 311 310 310 310 309 309 309 309 308 308 308 308 307 306 307 307 306 305 305 306 307 307 306 306 306 305 305 306 306 304 299 297 296 296 295 295 296 296 297 298 299 301 301 299 299
314 314 315 316 316 316 316 315 315 315 315 315 316 316 316 317 317 317 318 318 317 318 318 318 318 318 318 317 317 317 317 316 316 316 316 316 316 315 314 313 313 312 312 311 311 310 310 309 309 309 308 307 308 308 307 306 307 307 306 306 306 306 307 307 305 305 307 307 306 305 306 306 305 302 299 296 294 294 295 295 295 296 296 297 297 296 296
314 315 315 315 315 315 316 315 315 315 315 315 315 315 316 316 316 316 317 317 317 318 318 318 318 318 317 317 316 316 316 316 316 316 316 316 316 315 315 314 313 313 312 312 311 311 310 310 310 309 308 307 308 308 308 307 307 306 306 307 307 307 307 307 305 304 306 306 305 306 306 305 306 306 305 302 297 294 294 295 294 295 295 295 295 295 295
315 315 315 315 315 315 315 315 315 315 315 315 315 315 315 315 316 316 316 316 317 318 317 317 318 318 318 317 316 316 317 316 316 316 316 315 316 316 315 314 314 313 313 312 311 311 310 310 310 309 308 307 308 308 308 307 306 306 307 308 308 307 308 307 304 304 305 305 304 305 305 305 305 305 306 306 302 298 297 296 295 294 295 295 295 295 295
315 315 315 315 315 315 315 314 314 314 315 315 315 315 315 315 315 316 316 316 317 318 317 317 318 318 318 318 317 316 317 317 316 316 315 315 315 315 315 315 314 314 313 312 311 311 311 310 310 310 308 308 308 308 308 307 306 306 306 307 307 308 308 307 304 304 306 305 305 305 305 305 305 304 305 307 305 301 301 300 298 296 295 295 295 295 295
314 315 314 314 314 314 314 314 314 315 315 315 315 315 316 316 315 316 317 317 318 318 317 317 317 317 317 317 316 316 316 316 316 316 315 315 315 315 315 315 314 314 313 312 311 311 311 311 310 310 309 308 308 308 308 307 307 306 306 306 307 307 307 307 307 307 307 306 306 306 305 304 304 303 303 304 305 303 303 304 303 300 298 297 297 297 296
314 314 314 314 315 315 314 315 315 315 316 316 316 316 316 316 316 316 316 317 317 317 317 317 317 317 317 316 316 316 316 316 316 316 315 315 315 315 315 315 314 313 312 312 312 311 311 311 311 311 310 309 308 308 308 308 307 307 306 306 307 306 305 305 306 308 308 307 306 306 304 303 304 304 302 302 303 303 303 303 304 304 302 301 300 300 299
314 314 314 314 315 315 315 315 316 316 316 316 316 316 316 316 316 315 316 316 316 316 316 316 317 317 316 316 316 316 315 315 316 316 315 315 315 315 314 314 313 312 311 312 312 311 311 311 311 311 310 309 308 308 308 308 308 307 307 306 306 306 306 304 302 304 308 308 306 305 305 304 305 304 303 302 303 303 303 303 303 304 305 303 303 303 302
314 314 314 314 315 315 315 315 316 316 316 316 316 316 316 316 316 315 316 315 316 317 317 316 316 316 316 316 316 316 315 315 315 316 315 315 314 315 314 313 312 312 312 312 312 311 311 310 310 310 310 309 308 308 308 308 308 307 307 307 306 306 307 306 302 302 306 308 306 305 306 305 304 303 302 302 303 304 304 303 302 303 305 304 304 304 304
314 314 314 315 315 315 315 316 316 316 316 316 316 316 316 316 316 316 316 316 316 317 316 316 316 317 316 316 316 316 316 315 315 315 315 315 314 314 314 313 312 312 312 312 311 311 311 310 309 310 310 310 309 308 307 307 308 307 307 307 307 306 307 307 306 305 307 307 306 304 302 301 302 303 304 304 303 303 304 304 303 304 305 305 305 305 304
314 315 315 315 315 315 316 317 317 316 317 317 316 316 316 316 316 316 316 316 316 316 316 316 316 317 316 315 316 317 316 315 315 315 315 315 314 314 314 313 313 313 312 312 312 311 311 311 310 309 310 310 309 308 307 307 307 307 307 307 307 306 306 306 306 306 307 307 305 302 299 299 301 304 304 304 303 303 304 305 305 306 306 306 306 305 305
315 315 316 315 315 316 316 317 317 316 317 317 316 317 317 316 316 316 317 317 316 316 315 315 316 317 317 316 316 317 316 316 315 315 315 314 314 314 314 314 313 313 313 312 312 312 311 311 311 310 310 310 309 308 308 307 307 307 307 307 307 306 305 304 303 303 304 306 307 304 301 302 304 304 304 303 303 304 305 305 306 306 306 306 306 305 305
315 315 315 315 315 316 316 317 317 317 317 317 317 317 317 317 316 316 316 317 317 316 316 315 316 317 317 316 315 315 315 315 315 315 315 314 314 315 315 314 313 313 313 312 312 312 312 311 311 311 311 310 309 309 308 308 307 307 307 307 307 307 306 305 302 300 300 303 306 306 305 304 304 304 304 304 304 305 305 306 306 306 306 306 305 305 305
315 315 315 315 315 315 316 317 317 317 317 317 316 317 317 317 315 315 315 316 316 316 316 316 317 317 317 316 316 316 315 316 316 315 315 314 315 315 315 315 314 313 313 313 312 312 312 312 312 311 311 310 310 309 308 308 308 307 306 306 307 307 306 306 305 302 299 298 301 304 305 304 304 305 304 304 305 305 305 306 305 305 305 305 305 306 305
315 315 315 315 315 316 316 316 316 317 317 316 315 315 316 317 316 316 316 316 316 316 316 316 316 317 317 316 316 316 316 316 316 315 314 314 315 315 315 315 314 314 313 313 312 313 312 312 312 312 311 311 311 310 309 309 308 307 306 306 307 307 307 306 306 304 301 299 301 303 304 304 305 305 305 305 305 306 306 306 306 305 305 305 305 305 305
315 315 315 315 315 315 316 316 316 316 316 315 314 314 315 315 316 316 316 317 317 317 316 316 316 316 316 316 316 316 315 315 315 315 314 314 314 314 314 315 315 314 314 313 313 313 313 312 312 312 312 312 311 311 310 310 309 308 306 305 306 307 307 307 306 305 302 301 302 304 304 304 304 305 305 305 306 306 306 306 306 306 306 306 305 305 305
315 315 315 315 315 315 315 315 316 316 315 315 315 315 315 315 315 315 316 316 316 316 316 315 316 316 317 316 316 316 315 314 314 315 315 314 314 314 314 315 315 315 314 314 314 313 313 313 312 312 312 312 312 311 311 310 310 309 307 306 306 306 306 306 306 306 304 303 303 304 304 305 305 305 305 305 306 306 306 306 306 306 306 306 305 305 305
314 315 314 314 314 315 315 315 315 315 315 316 316 315 315 315 315 315 315 315 315 315 315 316 315 316 316 316 316 316 316 315 315 315 315 314 314 314 314 314 315 315 315 315 314 314 313 313 313 312 312 312 311 311 311 311 311 310 308 306 306 306 306 306 306 305 305 304 304 304 304 304 304 305 305 306 306 306 306 306 306 306 306 305 305 305 305
314 315 314 314 314 314 314 314 314 314 314 315 315 315 315 315 315 316 316 315 314 315 316 316 316 316 316 316 316 316 317 317 316 316 315 315 315 314 314 314 314 314 315 315 315 314 314 313 313 313 313 312 311 311 311 311 311 310 309 307 306 306 306 306 306 305 305 304 304 304 304 304 304 304 305 306 306 306 306 306 306 306 306 305 305 305 305
314 314 314 314 314 314 314 314 314 314 314 314 314 315 315 315 316 316 316 316 315 315 316 317 317 316 316 317 316 316 315 316 316 316 316 316 315 315 314 314 314 314 314 314 314 314 314 313 313 313 313 312 311 311 311 311 311 310 310 308 306 306 306 306 306 306 305 305 304 304 304 304 304 304 305 306 306 306 306 306 306 305 305 305 305 305 305
314 314 314 313 314 314 315 314 313 313 313 314 314 315 315 315 315 315 316 316 316 316 316 316 317 317 317 317 317 316 315 315 315 315 315 316 315 315 314 314 314 313 314 314 314 314 314 313 313 313 313 312 311 311 311 311 311 311 310 309 308 306 306 306 306 306 306 305 304 304 304 304 304 304 305 305 306 306 305 305 305 305 305 305 305 305 305
314 313 313 313 313 314 314 315 314 314 313 313 313 314 314 314 314 315 315 316 316 316 316 316 317 317 317 317 317 316 317 316 316 315 315 315 315 314 315 314 314 313 313 313 313 314 314 314 313 313 312 312 311 311 311 311 311 311 311 310 309 308 306 306 307 306 306 305 305 304 304 304 304 304 305 305 305 305 305 305 305 305 305 305 305 305 306
313 313 313 313 313 313 314 314 314 315 314 313 313 313 314 314 314 315 316 316 316 316 316 316 317 317 317 317 317 317 317 316 316 316 316 315 315 315 315 315 314 313 313 313 313 314 314 313 313 312 312 312 311 311 310 310 311 311 310 310 310 309 307 307 307 306 306 305 305 306 306 306 305 305 304 304 304 304 304 304 305 305 305 305 305 305 306
312 312 312 312 313 313 313 313 314 315 314 314 314 313 313 314 315 315 316 315 315 316 316 316 316 317 317 317 317 317 316 316 316 316 316 315 315 315 315 315 315 315 314 314 314 314 314 313 313 313 312 311 311 311 310 310 310 310 310 310 310 310 308 307 307 306 306 305 305 306 307 307 306 305 305 304 304 304 304 304 304 304 305 305 305 305 305
311 311 311 311 312 312 313 313 313 313 314 314 314 314 313 314 315 316 315 315 315 315 315 314 315 316 316 316 316 317 316 315 315 315 315 314 315 315 315 315 315 315 315 315 314 314 313 313 313 313 312 311 310 310 310 310 311 311 311 310 310 310 309 308 307 306 306 306 306 306 306 307 306 306 305 305 304 304 303 303 303 303 303 304 305 305 305
311 311 311 311 311 312 312 312 313 313 313 313 314 314 314 314 315 315 315 314 314 314 314 313 314 315 315 315 315 316 316 315 314 314 314 314 314 315 315 314 314 314 314 314 314 313 313 313 313 312 311 311 310 310 310 311 311 311 311 311 310 309 309 308 307 307 307 306 305 304 304 304 305 305 305 305 304 304 303 303 303 303 303 303 303 304 304
311 311 311 311 311 312 312 312 313 313 313 313 314 314 314 314 315 315 315 314 314 314 313 313 313 314 315 315 315 315 315 315 314 313 313 313 313 313 314 314 314 314 314 313 313 313 313 313 312 312 311 311 311 311 311 311 310 310 310 310 310 309 309 308 308 307 306 306 305 305 304 304 305 305 305 304 304 304 303 303 303 303 304 303 303 303 302
311 311 311 311 312 312 312 313 313 313 313 313 313 314 314 314 315 315 315 315 313 312 312 313 313 313 313 314 315 315 315 315 314 314 313 312 312 312 313 314 314 314 314 313 312 312 312 312 312 311 311 311 311 310 310 310 310 309 309 309 309 308 308 307 307 306 306 306 306 306 305 305 304 304 303 303 303 302 303 303 303 303 303 303 302 301 301
311 311 311 312 312 312 313 313 313 313 313 313 313 313 313 314 314 315 315 315 314 312 311 312 312 312 312 313 314 314 314 314 313 314 314 314 313 313 313 314 313 312 312 312 311 311 311 311 311 311 310 310 310 309 309 309 309 309 308 308 307 307 307 306 306 306 305 305 305 304 304 303 303 303 303 303 303 302 302 302 302 302 302 302 301 301 301
312 312 312 312 312 312 312 312 312 312 312 312 312 312 312 313 314 314 315 315 314 312 311 311 312 312 312 312 312 312 312 312 311 312 312 312 312 312 312 312 311 310 310 311 311 310 310 310 310 310 309 309 309 309 309 308 308 308 308 308 307 307 306 305 305 304 304 304 303 303 303 303 303 303 303 303 303 302 302 302 302 302 301 301 300 300 299
311 311 311 311 311 311 311 311 312 311 312 312 312 312 312 312 313 314 314 314 313 312 311 311 311 311 311 311 311 312 312 312 311 311 311 311 310 311 312 312 311 310 310 311 310 310 310 309 309 309 309 309 309 308 308 308 308 308 308 307 307 306 305 304 304 304 304 304 304 304 304 303 303 303 303 302 302 302 301 301 300 299 299 298 298 298 298
310 310 311 311 311 311 311 311 311 311 311 311 311 311 311 312 313 314 314 314 314 313 312 311 311 311 311 310 311 312 312 312 312 312 312 311 311 311 311 311 310 310 310 310 309 309 309 308 308 308 308 308 308 308 308 307 307 307 306 306 305 305 304 304 304 303 303 303 302 302 302 302 301 301 300 300 300 299 299 298 298 297 297 297 297 297 297
Wind_Speed
9 9 8 8 6 5 4 4 4 4 4 3 4 6 8 5 5 6 7 11 12 10 10 11 9 7 6 6 6 6 4 3 4 4 4 4 4 4 7 7 3 4 3 2 2 4 7 9 11 11 11 10 9 10 10 11 13 13 13 14 13 13 12 11 11 10 8 6 6 7 9 11 12 10 10 9 8 8 9 9 10 11 12 12 10 8 7
11 9 10 11 9 6 6 6 6 6 7 7 6 6 7 6 6 8 11 13 13 11 11 8 6 8 7 4 2 2 3 4 4 4 5 5 5 5 6 6 3 3 3 2 2 4 6 8 10 11 10 9 9 10 10 11 12 12 13 13 11 13 14 11 8 9 8 6 7 8 9 10 10 9 9 9 8 8 9 10 11 12 11 10 9 8 8
9 5 7 12 12 7 6 6 4 2 4 4 2 3 4 4 5 7 9 10 10 8 6 4 5 5 5 4 4 3 4 4 4 5 5 5 6 6 6 6 4 2 2 2 2 4 5 7 10 10 9 9 9 9 10 11 12 12 12 11 11 14 15 11 7 8 7 5 6 8 9 10 9 8 10 10 9 9 9 11 11 10 7 6 6 8 9
8 3 3 9 11 7 5 5 1 4 5 3 2 3 3 4 3 3 4 6 6 3 2 3 4 3 5 8 7 3 3 5 5 5 5 6 6 7 6 5 3 2 3 4 4 3 4 7 9 9 9 9 9 9 10 10 11 11 11 10 10 13 14 10 8 8 6 4 6 8 10 9 8 9 10 10 10 8 7 9 9 7 5 4 3 5 6
8 7 5 6 9 7 5 3 2 7 6 3 2 3 5 7 5 2 4 5 4 4 4 6 6 5 6 8 8 5 3 3 4 4 4 5 6 6 5 3 2 2 2 3 3 2 3 6 8 8 8 8 8 9 9 9 10 10 10 9 11 13 13 10 9 7 6 6 7 8 9 9 8 10 10 10 9 7 6 8 9 7 6 4 3 3 3
7 11 8 4 5 6 3 5 5 6 7 6 4 4 7 9 8 6 7 8 8 8 8 6 6 7 7 6 6 6 5 4 5 5 4 3 5 5 4 3 2 1 1 2 2 1 2 5 7 8 7 7 7 8 8 8 8 9 9 9 12 14 13 11 9 6 5 7 7 7 8 9 9 9 10 10 10 7 6 7 7 6 6 6 5 5 5
6 9 8 6 5 4 2 2 5 5 3 6 6 6 7 8 10 10 9 9 9 9 9 8 8 8 6 4 4 4 3 2 4 5 3 2 3 4 5 4 5 3 2 3 2 0 2 4 6 6 6 6 7 7 7 7 7 8 8 8 12 14 12 10 9 7 4 5 7 7 8 8 8 9 10 11 11 9 8 8 7 6 6 7 7 8 7
6 6 6 5 2 2 1 3 4 3 1 2 4 5 4 3 5 7 7 7 8 8 8 8 9 7 3 3 5 4 5 4 3 3 4 4 3 2 1 4 6 4 2 2 2 2 0 3 4 4 5 6 7 7 7 6 7 7 7 8 10 12 10 9 9 8 5 5 6 7 7 7 8 8 8 9 10 10 10 10 9 7 7 8 8 8 9
5 5 6 6 3 1 1 2 3 3 2 1 3 4 4 1 1 2 4 4 4 7 7 6 6 5 3 4 5 6 7 6 3 0 2 2 1 3 6 6 6 5 5 5 4 3 0 3 4 4 4 5 6 7 6 6 6 7 7 8 9 9 9 8 9 8 7 6 6 7 7 7 8 8 8 8 8 8 8 10 9 7 7 9 9 8 7
4 5 6 6 6 4 1 3 4 4 3 0 2 3 3 1 2 1 3 3 4 5 5 4 5 4 4 3 2 7 7 6 3 1 1 2 3 4 6 6 6 6 6 4 2 1 1 2 3 3 4 4 5 6 5 5 5 6 7 7 8 8 8 8 8 7 6 6 6 6 7 8 8 8 8 8 7 6 7 8 8 7 7 8 9 8 7
5 6 6 5 5 4 1 3 3 2 1 3 5 5 3 2 2 1 2 3 4 5 5 4 3 3 3 0 6 8 7 5 3 1 3 5 5 6 6 5 5 5 5 3 1 1 2 2 2 3 3 4 4 5 4 4 5 6 6 6 7 7 7 8 9 8 5 5 6 6 7 8 8 8 8 8 7 6 6 6 7 6 5 6 8 8 10
6 6 6 5 4 2 4 4 4 1 2 3 5 5 2 3 3 3 3 3 3 4 4 4 3 3 2 2 7 8 5 4 3 2 4 7 7 6 6 5 6 6 5 4 2 2 3 3 3 3 3 3 4 4 4 4 4 5 5 6 6 6 6 8 8 8 6 6 6 6 7 9 9 8 8 8 7 7 6 5 6 7 6 6 7 9 11
7 6 7 6 2 1 2 2 3 2 3 4 5 3 2 4 2 2 3 4 3 3 4 4 3 2 3 4 7 6 4 5 4 3 5 8 7 5 6 8 8 7 6 5 3 3 3 3 3 3 3 3 4 4 3 3 4 4 4 5 5 4 6 6 6 8 9 8 7 8 9 10 10 9 9 8 8 7 6 6 6 7 7 6 6 9 11
6 5 6 6 3 1 1 3 3 3 3 3 3 1 1 1 1 1 3 5 5 4 3 3 3 1 4 5 6 6 5 5 5 4 6 9 8 6 7 10 9 7 7 7 5 4 4 4 3 3 3 3 3 4 3 2 3 3 3 4 4 4 5 6 6 9 11 11 11 10 9 9 10 10 9 9 9 8 7 7 7 7 7 7 6 8 9
6 5 6 7 3 1 2 3 3 2 2 5 8 4 1 3 4 3 3 5 7 7 5 3 3 2 2 4 5 6 5 5 6 6 7 9 9 7 6 7 8 6 7 7 6 5 5 5 4 3 3 3 4 4 3 2 2 2 2 3 4 4 5 5 6 8 10 11 10 9 9 9 9 9 8 8 9 10 9 8 6 7 7 7 7 9 9
4 5 4 3 1 2 2 2 2 3 4 8 12 8 3 5 7 6 6 6 7 8 7 5 5 4 4 4 6 7 6 6 7 7 7 9 10 8 5 5 7 7 8 8 7 5 5 5 5 4 4 4 4 4 4 3 1 1 2 2 2 3 4 5 5 4 6 7 6 6 8 9 8 8 7 6 6 8 8 7 5 7 8 7 7 8 8
4 5 6 6 4 3 5 4 4 6 7 11 14 10 7 6 5 6 9 9 7 8 8 7 7 7 5 5 6 8 7 7 8 8 9 10 10 10 8 8 9 8 7 7 7 6 6 6 6 5 5 4 4 4 5 5 2 1 1 1 2 2 3 5 5 3 3 6 6 6 6 7 8 8 7 4 5 7 8 7 6 7 9 8 7 7 8
6 7 7 7 7 6 6 6 7 9 10 11 12 12 10 9 8 8 10 10 9 10 9 8 9 9 8 6 7 8 8 8 8 9 10 10 11 11 10 11 13 12 8 6 7 6 6 7 7 6 7 6 4 3 4 3 2 2 1 0 2 2 2 4 5 4 4 4 6 6 6 5 6 7 8 6 2 6 8 7 7 7 7 7 7 7 7
6 5 4 6 8 9 11 12 12 12 11 9 8 8 9 11 12 13 11 10 11 12 12 11 11 11 10 10 9 8 9 9 9 10 10 11 12 10 8 10 13 12 8 7 8 7 7 7 7 7 7 7 5 4 3 3 3 2 1 2 1 3 2 2 4 4 4 5 5 5 5 5 4 4 6 8 5 3 6 6 7 7 6 6 7 7 5
6 8 10 12 14 13 15 17 14 9 6 6 6 6 7 10 11 12 11 9 10 12 13 12 11 11 12 12 11 9 9 10 10 10 11 11 12 11 8 9 12 11 9 9 9 9 9 8 8 7 7 6 6 5 4 4 5 3 2 3 1 2 1 1 2 2 2 5 5 3 6 9 8 6 6 7 7 7 6 5 5 5 4 5 6 6 4
7 10 10 9 13 13 14 14 8 4 5 7 7 8 10 11 12 13 12 11 11 13 14 12 10 11 12 13 12 10 10 10 10 11 11 12 13 13 10 10 11 10 9 10 10 9 8 8 8 8 8 7 7 7 6 5 6 5 4 3 2 0 1 1 1 1 1 3 4 1 4 8 10 11 11 10 9 9 9 8 7 6 6 6 7 8 8
6 9 8 9 10 8 12 15 12 10 10 10 10 12 13 14 15 15 14 14 14 15 14 12 11 12 13 13 13 12 10 10 10 11 11 12 14 14 12 11 11 11 11 11 11 10 8 8 8 8 8 7 7 8 7 6 7 7 5 3 2 1 1 1 1 1 1 1 2 2 1 4 6 10 12 13 12 11 11 11 10 10 10 10 10 11 11
8 12 15 16 12 10 12 15 16 18 16 13 12 15 17 17 18 18 17 18 18 16 13 12 12 13 13 13 13 13 12 11 10 11 12 13 14 15 14 12 12 13 12 12 12 11 10 9 9 9 8 8 8 8 7 7 8 8 6 4 4 3 4 5 4 1 1 1 1 2 0 2 5 6 7 9 11 12 12 12 11 11 12 12 12 13 13
12 15 18 18 15 15 16 17 18 19 18 16 16 18 18 19 19 19 19 18 18 17 15 13 12 12 13 13 13 13 13 11 11 12 13 13 14 15 14 13 13 13 13 13 13 12 11 10 9 9 9 8 8 8 8 8 8 7 7 8 6 4 4 5 4 0 2 1 1 2 2 1 2 5 6 5 7 10 12 12 12 12 12 13 13 14 14
12 14 16 17 17 18 19 20 20 19 17 17 18 19 19 19 19 19 19 19 18 17 17 16 13 12 14 15 14 13 13 12 12 12 13 13 14 15 15 14 14 13 13 14 13 13 13 12 10 10 9 9 9 9 9 9 9 7 7 8 7 2 2 1 3 1 2 2 1 1 1 1 1 2 3 3 4 6 8 10 12 12 12 13 14 14 15
13 15 17 18 20 20 20 20 21 19 18 17 18 19 19 19 19 18 18 19 18 17 18 18 16 15 17 18 16 14 14 14 13 13 14 14 14 15 14 14 14 14 13 14 13 13 13 13 12 11 10 10 10 10 9 9 10 8 7 7 7 6 5 5 4 2 1 2 2 2 3 2 2 1 2 1 2 3 5 6 8 9 11 13 14 14 14
15 17 17 17 18 19 18 19 19 20 20 20 19 20 20 20 20 19 19 20 19 18 17 17 15 15 17 17 16 16 16 14 14 15 16 15 15 16 15 14 14 14 13 13 13 13 13 13 12 12 12 10 10 11 10 10 10 9 8 7 7 7 7 7 7 7 4 2 3 3 3 3 2 1 2 3 2 1 3 4 5 6 7 9 11 12 12
18 18 17 16 16 18 18 19 19 20 21 20 20 20 20 20 20 21 20 21 20 18 17 15 14 15 16 16 17 18 17 15 16 17 16 15 15 15 14 14 14 14 13 13 13 13 13 13 12 12 12 11 11 11 11 11 11 10 9 7 7 7 7 7 6 8 6 3 3 4 4 3 3 3 2 2 2 1 1 2 3 4 4 5 8 10 10
17 16 15 14 16 18 18 19 19 20 20 19 18 18 17 18 20 21 21 21 19 17 15 14 14 16 15 15 17 20 18 16 16 16 15 15 14 15 15 15 15 14 13 13 13 13 14 13 12 13 12 12 12 12 11 11 11 11 10 8 7 7 7 7 4 5 5 4 5 7 8 7 5 3 2 2 2 1 1 1 1 1 1 4 8 7 7
17 16 15 16 17 17 17 17 18 18 18 18 18 17 16 17 18 18 20 21 18 14 13 14 17 20 19 16 17 19 17 15 16 16 15 15 15 15 15 15 15 15 14 14 13 13 13 13 12 12 12 12 13 13 12 12 12 11 10 9 8 8 8 7 4 4 5 6 7 7 8 9 7 4 2 3 2 1 1 1 1 2 1 3 6 4 4
17 17 17 17 16 15 14 15 16 17 16 16 16 16 16 16 17 17 18 19 19 16 14 15 18 21 21 18 16 15 14 13 14 16 16 16 16 16 16 17 17 16 15 15 14 13 14 14 13 12 12 13 13 13 13 13 13 12 11 10 10 10 11 11 10 8 7 6 6 5 5 5 5 4 4 4 4 2 2 3 2 1 1 1 2 2 4
16 16 16 16 14 13 14 14 15 15 15 15 15 15 14 15 16 16 16 16 17 17 17 15 15 16 17 16 16 16 16 15 14 15 16 17 17 17 18 18 17 16 15 15 15 14 14 15 14 13 12 13 13 13 14 15 14 12 11 11 11 11 11 11 12 12 11 9 6 5 4 4 4 5 5 5 4 3 3 3 3 3 3 2 4 5 7
14 14 14 13 12 13 14 14 14 14 14 15 15 15 15 15 15 14 13 12 12 13 15 14 14 14 16 16 16 17 17 18 18 18 18 18 18 18 19 19 17 17 16 16 16 16 15 15 15 14 13 14 13 13 15 16 15 14 12 11 11 11 11 10 9 9 11 12 10 7 7 7 6 6 7 6 5 4 4 4 3 4 4 3 4 5 5
13 14 14 13 13 13 12 12 13 13 14 16 16 14 15 16 16 14 12 13 14 14 15 15 14 14 15 16 17 18 17 18 19 20 19 19 19 18 19 19 18 17 17 16 15 16 16 15 15 14 14 14 14 14 16 17 16 14 13 12 11 12 13 12 10 9 10 11 11 10 10 9 8 7 8 7 6 5 6 5 4 4 4 4 5 6 7
11 12 13 13 12 10 9 11 12 13 14 17 18 15 15 17 18 16 15 16 16 16 15 14 14 15 16 17 19 21 21 22 23 23 21 20 20 19 20 20 19 18 18 17 16 16 16 16 16 15 15 15 15 16 17 18 17 15 13 13 12 12 13 13 12 10 10 10 10 10 10 10 9 9 9 8 8 8 8 6 5 5 6 6 6 7 7
10 10 11 12 11 10 10 12 13 14 16 18 19 17 16 17 18 17 16 16 15 15 15 16 15 15 16 17 18 21 22 24 27 27 24 21 21 20 20 21 21 20 20 20 19 18 18 17 16 16 16 15 15 15 17 18 18 15 14 14 13 13 12 12 11 10 9 10 11 11 11 10 10 10 10 10 10 9 7 6 6 7 7 6 7 7 7
9 10 11 12 11 11 13 13 14 14 16 16 16 17 17 18 17 16 16 16 15 15 16 16 16 15 15 15 16 17 19 22 26 27 24 21 21 20 21 22 23 22 22 22 21 21 20 19 18 18 19 18 16 15 17 19 19 17 16 16 15 15 14 13 12 11 9 9 10 12 12 12 12 12 11 11 11 10 10 9 9 9 8 8 8 8 8
9 9 11 12 12 12 13 14 15 16 15 14 15 16 18 18 17 16 17 19 19 17 16 17 17 17 16 16 15 16 17 20 24 25 23 21 21 21 22 23 24 24 24 23 22 22 22 21 20 21 21 20 18 17 18 20 19 17 16 17 17 16 16 16 15 15 13 12 11 12 12 13 13 13 13 13 13 12 12 11 10 9 9 9 9 8 8
9 9 10 12 12 12 12 14 16 17 16 16 18 18 17 16 16 16 18 20 20 17 16 17 17 16 16 18 18 18 17 18 20 21 21 21 22 23 24 24 24 24 24 24 23 23 23 23 22 23 23 22 20 19 20 21 19 18 17 18 18 18 18 18 17 17 16 15 14 14 14 14 14 14 14 14 14 14 14 14 12 12 12 11 10 10 10
10 10 11 12 12 12 13 15 16 16 16 16 17 17 17 16 16 16 18 20 19 17 16 18 18 16 16 18 21 21 19 19 20 21 22 23 25 25 25 25 25 24 24 24 24 23 23 23 23 24 23 22 21 21 22 22 20 18 17 18 19 19 19 19 19 18 17 17 17 17 16 15 15 15 15 15 15 14 14 13 12 12 13 13 13 13 12
11 11 12 12 13 13 14 15 16 16 16 16 15 16 17 17 17 17 18 19 20 19 18 18 19 19 17 18 20 21 20 19 19 21 22 25 27 28 27 26 26 26 25 25 26 25 25 24 23 23 22 22 22 22 23 23 22 20 18 19 20 21 20 20 20 19 19 18 18 18 18 17 17 16 17 17 17 16 15 14 13 13 13 14 15 14 13
12 13 13 14 14 14 14 14 15 15 17 17 16 16 16 17 17 18 18 18 18 18 18 18 20 21 19 19 20 20 19 17 18 21 23 25 28 30 30 29 28 28 28 27 28 28 28 26 23 22 22 22 22 22 23 24 23 22 21 20 21 21 21 21 21 21 20 19 18 18 19 19 20 20 20 20 20 18 15 15 16 16 16 16 16 14 14
13 14 14 15 15 15 14 14 14 15 16 17 16 15 16 17 16 16 16 16 16 17 17 18 19 20 20 20 20 20 19 17 17 19 22 23 25 28 30 30 29 29 30 29 29 30 30 28 25 24 24 22 21 22 25 25 24 22 21 21 22 23 23 23 23 21 20 19 18 18 19 19 19 20 20 18 17 16 14 14 16 18 19 19 18 17 16
13 14 15 16 16 16 15 15 15 15 16 16 15 15 16 17 15 14 14 15 15 16 17 17 18 18 19 20 20 20 20 19 18 19 20 20 21 24 28 29 28 26 26 27 29 30 31 30 29 28 26 23 22 24 26 25 23 22 22 23 25 25 25 25 24 22 20 19 19 19 20 19 16 15 15 15 16 17 19 19 19 19 19 20 21 21 20
14 14 15 16 16 16 16 16 16 16 16 16 16 17 17 16 14 12 12 13 14 14 15 16 16 18 19 19 19 19 20 20 20 21 20 19 19 20 22 25 26 23 21 22 27 30 31 31 30 29 26 24 23 24 25 23 21 21 22 24 26 27 27 27 26 24 23 22 21 22 23 22 20 19 19 20 21 21 21 21 22 22 22 21 21 22 22
15 15 15 16 17 17 17 17 17 17 17 17 17 17 17 15 13 12 12 12 12 13 14 15 15 16 16 16 17 18 18 19 19 19 18 17 17 16 16 19 23 23 22 22 24 26 27 27 27 24 22 21 21 21 22 21 20 21 23 24 25 26 27 27 27 26 24 22 22 23 24 24 23 22 21 21 21 22 22 22 22 23 22 21 21 23 23
15 16 16 17 17 17 17 17 17 17 18 18 18 17 16 15 14 12 12 13 14 15 15 14 14 13 11 11 12 14 16 17 17 18 18 18 18 16 15 16 19 21 23 25 25 22 20 20 19 18 17 18 17 17 18 19 19 22 24 25 26 27 27 27 28 27 24 21 21 21 21 20 21 20 18 16 16 17 19 20 21 22 22 23 24 25 24
16 17 17 17 17 18 17 17 17 17 17 17 17 17 15 14 14 13 12 14 17 18 16 15 12 9 7 6 8 10 11 11 10 11 14 17 17 16 16 17 18 19 21 24 24 21 19 18 17 15 15 15 15 15 16 18 20 23 24 24 24 24 23 23 23 22 20 18 17 15 13 13 15 14 14 14 15 16 17 17 18 18 19 20 21 22 22
17 17 17 17 17 17 17 16 16 17 17 16 16 16 15 14 14 14 13 14 16 17 16 14 11 7 4 5 8 10 11 11 10 10 12 13 13 13 13 14 14 16 18 20 20 19 19 18 16 13 13 14 15 16 18 20 21 21 20 18 17 16 15 15 15 15 13 12 11 10 10 12 13 13 14 15 15 15 14 14 14 14 16 17 19 20 19
16 16 17 17 16 17 17 17 17 18 17 17 17 16 15 14 15 14 13 13 15 17 16 13 11 7 5 5 7 7 7 9 10 11 12 11 12 13 13 12 11 12 15 17 16 16 16 15 13 12 14 16 18 19 20 20 19 18 16 15 15 14 13 12 12 11 10 10 10 11 11 12 12 12 13 13 13 12 13 13 14 14 15 14 14 12 11
17 17 18 18 18 18 18 18 18 19 18 18 18 17 16 16 16 15 14 14 16 16 15 13 11 10 8 6 5 4 4 4 5 7 8 8 10 12 14 13 12 12 14 15 15 15 15 15 15 16 18 20 20 20 20 19 18 17 15 14 14 13 12 11 10 9 9 9 9 9 10 10 10 10 12 12 12 12 12 11 10 9 9 9 10 10 12
18 19 19 19 19 19 19 19 19 19 18 18 17 17 16 15 14 14 14 16 17 16 15 14 13 11 9 7 7 7 6 5 6 7 7 7 8 10 13 13 13 13 14 16 16 17 17 18 19 20 20 20 19 19 18 17 15 14 13 13 12 11 10 9 8 7 7 8 8 9 9 9 9 10 11 11 11 11 10 10 10 11 12 14 16 17 18
Wind_Direction
284 280 286 289 281 266 246 217 185 188 224 221 194 233 265 283 281 276 304 316 309 312 310 300 311 345 3 27 26 9 360 327 296 287 276 276 278 274 280 282 238 185 200 238 302 325 326 319 315 317 319 320 320 324 329 331 335 340 341 342 344 343 339 336 336 340 343 352 4 10 10 6 4 2 353 345 336 322 318 312 307 308 300 287 277 274 274
288 297 310 294 269 261 265 247 224 207 202 197 196 229 263 280 288 285 291 297 296 292 293 306 359 17 12 20 25 315 300 297 297 292 285 290 297 290 288 291 269 185 191 214 270 301 311 315 315 317 320 319 320 324 328 332 336 339 341 343 344 342 337 334 336 338 340 353 5 6 4 2 0 355 348 342 332 328 328 320 314 312 299 282 273 263 260
287 303 323 298 275 260 269 271 262 175 152 160 191 247 273 293 299 291 286 282 277 280 301 341 18 10 327 286 245 240 284 303 302 293 290 295 296 289 284 284 281 250 237 254 280 294 313 323 317 315 317 316 317 321 328 333 335 340 343 337 334 336 333 331 332 331 331 341 350 354 360 5 4 353 349 343 326 319 321 317 318 321 312 297 280 262 262
289 271 259 283 284 272 263 282 286 130 132 150 192 205 206 192 209 286 292 268 264 284 354 316 306 311 293 284 276 253 241 249 249 261 277 285 289 292 294 291 284 269 268 278 285 302 332 327 314 313 315 314 315 319 325 331 334 340 342 335 340 344 336 332 336 335 341 349 345 354 1 3 1 353 345 335 327 328 330 328 330 330 324 323 297 271 276
287 293 295 300 303 287 267 288 217 183 181 186 179 194 208 189 174 218 258 259 287 327 322 302 306 305 282 279 287 302 307 277 266 276 284 280 281 289 296 303 302 291 278 280 288 329 349 320 312 317 316 310 314 317 322 329 334 341 342 342 350 348 340 342 346 346 11 20 1 358 2 1 357 351 341 332 336 352 357 349 350 341 328 332 322 297 291
287 301 307 297 286 276 301 358 321 230 194 180 187 223 226 207 195 219 259 285 312 319 308 299 305 301 286 269 268 283 297 310 320 327 323 300 289 287 284 272 261 256 251 267 285 5 353 318 314 316 311 308 314 318 322 328 333 338 341 347 351 346 342 348 350 351 19 22 7 0 3 7 2 354 350 345 346 359 4 354 358 354 333 322 314 306 296
272 293 296 282 275 258 217 310 300 275 201 185 212 240 240 220 212 224 253 281 289 290 293 293 294 293 283 254 247 256 242 248 293 302 315 334 302 282 270 234 203 193 241 262 255 272 330 316 309 309 312 312 313 317 324 331 335 335 340 352 353 350 349 350 351 2 27 23 17 13 7 7 7 4 6 360 354 3 9 359 1 7 349 327 313 305 294
273 282 285 281 281 115 146 274 272 260 256 263 264 270 274 260 226 224 242 264 273 283 293 298 299 298 281 248 246 228 198 193 230 287 338 11 9 4 77 160 181 184 173 176 158 135 10 303 297 309 317 311 310 316 324 334 338 337 343 354 354 354 358 356 355 7 22 18 18 18 11 8 10 8 8 5 4 12 12 1 359 4 359 346 330 313 296
276 283 288 280 258 181 156 263 243 197 175 297 318 309 297 290 182 235 260 272 290 303 307 313 315 309 291 271 238 190 175 174 168 355 351 11 48 90 95 117 149 150 142 155 154 128 88 289 284 297 312 314 318 323 328 335 338 340 346 352 353 355 358 359 358 2 10 10 9 9 5 4 8 7 2 2 12 24 16 358 355 5 4 352 343 334 320
266 280 290 285 282 285 171 173 200 176 145 210 297 292 279 152 107 359 320 329 331 324 324 338 339 310 280 276 132 127 136 146 140 150 184 154 141 133 124 127 133 130 133 144 134 112 244 279 287 290 304 317 321 322 330 335 336 345 351 351 355 356 354 357 358 359 2 2 2 3 0 358 2 4 2 0 10 31 25 357 352 13 13 355 348 348 350
265 278 285 283 287 290 161 178 219 193 90 340 304 277 245 140 88 357 339 343 337 338 344 343 324 291 281 29 110 120 132 143 144 181 166 149 146 146 142 144 150 151 151 143 107 200 226 253 275 281 300 317 320 323 329 331 339 352 354 352 357 0 357 354 355 358 1 356 360 9 7 6 7 5 7 8 6 23 31 359 349 11 18 2 354 349 350
265 269 276 281 280 224 165 188 222 226 28 328 286 269 212 118 61 1 341 335 339 349 341 320 297 295 324 83 127 135 148 163 168 179 165 158 159 158 157 163 169 174 175 169 172 204 220 251 264 270 294 305 314 324 325 326 344 352 351 354 2 6 8 5 358 358 358 354 5 20 19 18 17 14 18 18 10 18 28 3 352 8 22 16 0 352 354
272 268 272 274 272 90 107 193 238 293 313 269 263 282 83 103 78 349 307 302 322 334 319 313 318 20 65 109 140 154 176 178 165 162 168 165 162 169 182 181 174 174 177 180 199 225 237 255 255 256 280 291 308 322 317 321 341 348 350 354 357 2 15 16 0 352 360 15 32 35 28 23 21 24 26 23 20 27 26 16 13 16 20 23 7 359 5
269 267 276 277 262 121 323 289 287 291 271 255 277 332 85 141 220 280 301 311 318 306 297 322 340 51 118 146 172 181 185 177 167 169 172 166 164 182 192 181 172 176 182 185 201 228 238 245 247 249 262 279 303 308 302 305 325 339 351 356 6 23 30 28 6 354 10 35 46 41 36 29 23 29 35 28 26 33 33 30 34 27 25 32 23 12 18
282 267 271 287 290 198 246 286 307 306 316 327 322 317 313 310 311 318 320 316 308 294 279 289 305 275 188 196 197 191 195 194 185 181 176 171 172 179 183 178 179 190 194 191 202 223 231 238 245 244 249 268 290 299 302 301 299 329 351 1 16 25 25 29 20 4 15 34 39 33 36 37 26 26 38 36 30 35 42 42 35 31 37 41 35 32 36
301 279 276 315 13 179 227 272 254 211 221 276 290 292 297 306 312 312 293 281 291 297 294 292 292 276 245 229 214 209 213 206 192 187 184 183 183 180 179 184 191 201 203 197 199 211 222 232 242 239 239 257 277 281 277 265 251 339 347 344 8 13 9 18 28 26 19 27 40 38 29 28 23 16 27 55 55 43 41 41 37 47 54 50 43 45 44
306 295 292 308 310 253 247 248 250 250 241 252 272 293 303 290 292 301 294 291 300 299 289 287 293 290 271 244 229 226 221 209 203 202 194 188 189 191 199 200 192 195 208 207 202 210 220 222 231 240 242 248 260 257 259 260 248 244 288 317 357 1 354 358 15 64 40 12 31 55 40 26 25 19 16 46 96 86 62 45 41 53 57 53 52 53 49
304 292 285 299 306 288 270 257 261 271 267 264 277 292 291 279 272 276 285 297 305 297 282 273 276 283 282 266 246 235 225 215 212 209 202 197 198 202 210 207 194 192 205 212 203 209 219 217 224 240 239 237 242 248 253 251 224 211 217 240 357 358 1 358 9 54 82 40 29 46 50 44 42 34 17 0 29 118 105 83 71 65 55 52 58 59 57
309 297 280 283 282 276 276 274 266 260 260 270 286 289 285 285 281 270 268 285 297 296 289 278 272 274 279 276 262 240 230 228 218 207 205 206 205 206 210 206 196 191 193 202 201 207 215 218 226 235 228 224 234 241 237 217 199 198 217 216 306 360 49 53 6 19 71 81 62 31 28 45 62 54 25 8 10 93 123 122 113 100 82 72 68 64 69
280 273 275 291 301 297 286 276 267 264 282 304 310 298 288 286 279 267 264 275 286 285 283 279 271 264 265 270 267 247 235 236 223 209 209 211 207 207 208 206 199 190 187 200 208 212 215 216 219 220 215 219 229 226 218 209 202 205 227 225 238 13 53 67 18 12 45 68 75 26 5 28 52 61 46 34 42 61 76 97 114 117 122 120 98 80 84
278 269 274 321 344 334 317 309 307 333 342 319 299 288 278 272 274 274 268 264 268 272 273 272 265 255 255 264 268 255 240 236 227 217 214 208 203 203 207 209 207 199 195 205 212 214 217 213 207 209 212 218 220 215 212 210 201 201 220 235 230 108 67 331 345 48 31 39 70 66 350 14 37 45 45 48 56 64 68 72 82 88 94 106 98 84 83
280 276 293 347 358 323 313 323 326 325 321 308 297 298 295 286 286 286 279 272 272 270 264 260 256 249 245 253 262 258 245 237 229 220 213 204 201 201 203 210 216 211 205 208 210 212 216 211 203 206 211 211 211 212 212 207 201 201 208 217 217 161 113 248 250 145 110 37 74 93 332 333 3 25 38 46 51 58 66 70 74 80 84 87 86 82 80
293 290 299 318 322 300 300 311 314 315 317 308 296 295 294 290 288 286 284 284 283 278 269 264 257 247 239 243 255 257 248 237 228 219 210 205 203 203 204 209 210 203 200 207 211 211 213 211 207 207 208 207 207 208 207 205 205 207 208 215 231 225 213 229 245 170 123 200 161 125 124 308 321 342 13 37 46 51 59 65 69 74 78 79 80 80 79
288 290 295 302 303 302 304 304 303 305 304 297 294 293 289 288 286 283 283 285 284 282 280 276 264 250 239 237 245 251 246 236 227 217 210 208 207 205 206 210 208 200 200 207 210 210 211 210 208 207 208 208 207 204 204 208 212 210 208 223 241 229 198 231 266 96 128 181 187 141 127 48 321 316 330 9 40 47 51 55 59 65 71 75 76 77 77
286 289 294 296 294 296 299 296 295 296 294 292 291 288 285 287 288 287 286 285 283 281 279 275 266 252 240 233 236 244 242 234 228 217 208 209 209 204 204 208 206 203 204 205 207 211 212 210 210 211 211 210 208 205 203 206 214 216 209 219 236 231 148 253 303 19 140 191 191 168 178 151 135 302 317 353 18 29 42 50 52 56 63 68 70 70 71
286 287 290 291 289 289 292 293 294 295 296 294 289 285 285 287 285 283 282 281 279 276 275 272 264 252 242 234 234 242 241 233 227 215 204 206 207 204 205 206 202 201 203 204 206 210 209 209 212 213 213 212 210 208 205 203 212 221 215 214 228 230 215 216 216 190 195 223 203 207 221 192 143 147 189 167 38 10 8 21 34 45 56 63 62 61 62
285 288 288 288 288 288 290 292 293 293 294 293 290 289 288 285 282 279 276 276 277 275 275 273 265 254 246 233 229 240 242 231 220 211 206 208 209 205 203 202 198 198 200 201 204 208 207 209 211 211 212 214 212 209 207 207 213 220 217 215 225 233 236 230 204 183 186 224 222 215 211 189 156 158 177 159 129 48 2 3 7 14 32 48 49 47 48
281 283 284 286 289 291 292 291 291 293 294 294 293 292 291 289 287 283 277 275 275 272 272 272 265 257 250 233 229 242 244 227 213 208 205 208 210 205 201 198 195 195 196 197 203 206 204 205 209 211 212 214 213 211 208 208 213 219 218 217 221 231 256 268 228 189 181 210 226 213 206 195 191 192 177 149 144 164 47 44 4 338 342 11 25 32 37
284 288 291 290 289 290 291 292 294 296 297 297 296 298 299 297 294 292 290 288 285 278 274 275 268 258 243 224 230 246 246 227 214 210 208 210 210 203 199 196 192 192 194 196 201 203 200 199 207 213 213 212 210 210 209 209 214 218 217 215 213 219 247 273 248 182 177 211 226 220 215 206 191 182 192 186 171 173 171 145 22 5 275 327 351 18 43
294 297 295 290 286 286 291 297 300 302 304 303 298 296 299 298 293 293 295 295 293 289 286 282 271 256 236 221 234 251 249 232 221 217 213 213 209 201 197 193 188 189 193 194 197 201 199 198 203 209 212 212 210 209 209 210 213 217 218 216 212 212 221 232 222 186 194 227 244 246 236 217 190 168 201 226 211 178 194 226 337 64 122 304 330 17 52
298 296 291 285 284 287 295 303 305 304 306 308 304 299 300 299 297 297 298 298 298 297 289 280 272 257 239 224 227 234 231 227 228 223 217 214 209 201 197 193 189 191 194 195 197 202 203 203 204 207 210 210 207 206 209 211 211 215 219 218 218 218 215 211 209 204 199 214 242 257 239 202 179 179 215 224 220 229 233 239 282 319 196 268 312 300 280
295 292 288 285 285 291 298 306 308 306 307 312 312 309 310 309 307 308 307 307 307 299 282 272 271 265 249 232 223 222 222 227 233 230 222 216 210 203 199 198 196 197 200 200 200 203 206 207 206 207 208 208 206 206 211 212 211 213 217 218 221 229 229 223 221 217 203 195 210 232 223 202 201 218 229 222 216 232 240 233 247 258 253 275 294 275 265
290 289 291 292 292 295 300 306 310 311 311 312 311 309 311 309 304 301 305 312 311 299 284 275 270 261 251 242 236 234 231 232 238 239 229 217 211 206 203 201 202 204 205 204 202 202 205 208 209 208 207 207 207 208 212 215 213 212 214 217 219 229 238 242 243 236 218 202 196 205 216 219 217 216 221 225 228 237 241 240 246 247 246 273 299 288 279
290 292 294 295 295 296 301 307 310 311 314 318 316 312 309 306 301 300 304 304 296 288 284 281 271 257 250 246 240 235 229 228 236 240 229 216 211 208 203 202 204 205 205 204 202 203 205 205 206 206 203 202 204 208 211 217 217 212 210 214 217 225 236 243 251 256 242 221 206 204 210 215 218 218 220 223 224 224 229 240 257 259 257 277 299 294 290
291 292 292 293 295 295 296 303 306 306 311 317 319 315 308 304 304 305 302 296 290 286 283 280 273 264 257 249 242 238 235 232 235 238 233 222 216 210 205 203 204 205 205 206 206 206 205 203 202 204 203 201 205 209 211 215 218 213 208 210 215 224 235 243 249 253 243 223 213 214 216 214 216 220 220 222 227 233 236 242 253 258 262 269 274 275 283
294 298 300 301 301 300 297 300 303 304 305 307 308 305 299 296 298 302 300 294 292 293 289 285 284 277 264 252 246 245 241 234 234 238 237 226 217 212 207 205 205 204 205 208 208 206 207 207 206 205 203 201 204 210 213 215 216 213 208 209 212 218 228 241 251 255 240 215 207 214 221 222 221 222 222 225 231 235 236 236 242 251 258 267 272 279 294
300 304 308 311 311 310 307 303 300 299 298 296 294 293 292 292 296 300 298 293 292 294 292 289 286 278 264 253 248 247 242 236 237 241 238 226 218 215 212 209 209 208 207 209 209 208 209 212 211 208 208 208 208 210 216 220 219 213 209 210 212 213 216 222 232 241 241 227 213 212 218 223 223 222 222 224 227 234 240 244 247 249 250 254 264 277 289
305 306 311 314 313 313 313 309 306 305 304 302 300 298 297 295 294 295 296 294 293 292 292 291 284 273 263 256 248 242 241 242 242 243 238 229 223 221 217 214 213 212 212 213 212 210 211 212 211 212 217 221 217 213 218 225 225 219 212 211 212 214 215 217 220 224 227 228 223 218 219 223 225 226 226 226 226 231 236 239 242 244 244 247 256 265 272
303 306 311 312 311 311 312 312 312 312 309 308 309 309 306 301 297 295 298 302 301 296 292 290 285 273 263 256 244 235 234 240 242 242 241 238 233 231 227 222 218 218 218 218 215 212 212 213 213 217 224 229 225 218 220 226 229 227 221 215 213 215 217 218 219 221 222 224 224 223 222 225 227 227 228 231 234 235 235 239 245 244 239 240 252 262 261
300 303 308 309 307 306 307 308 310 310 309 309 310 309 308 309 306 300 299 304 307 304 295 286 280 271 260 252 247 244 245 246 243 241 241 240 238 236 234 229 224 222 223 222 219 215 214 216 218 222 227 229 225 220 221 226 231 233 229 221 217 217 219 219 221 222 223 222 221 222 224 227 229 230 231 235 239 238 235 237 244 243 238 244 258 262 256
291 296 301 303 301 300 303 306 308 309 310 312 311 309 310 312 311 305 302 302 302 300 292 282 276 269 257 249 252 260 263 257 247 241 240 240 238 238 239 237 230 226 225 227 224 219 216 218 223 226 229 229 224 219 220 224 229 232 234 231 226 222 221 221 221 221 221 222 223 225 226 226 227 229 231 234 237 239 238 241 250 255 258 263 267 261 253
291 296 299 299 298 298 299 301 304 306 308 308 309 310 313 313 310 308 306 302 298 296 291 283 277 272 264 256 256 260 259 252 244 241 242 241 237 236 238 239 235 230 229 229 227 222 222 226 228 227 227 227 226 223 224 226 229 232 235 236 233 228 224 222 223 223 223 224 226 227 229 230 229 229 230 233 238 243 250 256 262 264 266 266 263 255 251
295 298 297 297 298 297 295 295 295 297 300 304 307 309 311 311 310 309 310 310 307 302 297 292 285 279 272 263 254 248 246 245 242 239 238 238 235 233 235 237 237 233 231 229 226 224 226 231 232 229 227 229 233 232 230 229 231 233 234 236 237 234 228 225 224 225 225 227 228 229 235 239 235 224 219 221 229 239 250 259 264 265 264 260 254 249 248
295 296 296 297 296 295 294 293 292 291 293 299 303 305 306 307 307 308 312 315 313 309 304 300 295 288 280 269 255 246 245 243 239 235 236 239 239 237 235 237 239 237 233 232 231 229 229 231 231 229 229 231 234 232 228 226 229 233 235 236 237 236 231 228 226 224 223 225 226 228 235 244 242 230 224 232 246 258 263 263 260 260 260 254 246 242 243
295 295 296 296 294 291 289 289 289 290 293 294 295 298 301 301 299 299 306 312 316 317 314 309 303 298 291 278 260 249 245 242 239 240 243 244 242 238 236 236 237 235 229 226 226 225 223 224 227 228 229 229 226 222 220 223 230 235 237 237 236 235 233 231 228 224 223 226 228 229 233 241 247 249 251 255 260 263 263 257 253 255 259 257 248 241 240
295 296 296 296 294 290 288 287 286 287 289 290 289 292 296 295 290 291 298 305 309 314 318 319 315 307 295 276 256 247 246 245 244 247 250 245 237 233 232 232 230 228 224 221 218 215 215 220 224 225 222 216 210 208 214 223 231 234 234 233 231 231 231 230 228 227 230 234 237 236 237 241 246 252 257 260 259 257 255 254 255 258 260 261 257 253 251
293 294 294 294 292 290 290 290 288 286 286 286 286 288 291 290 287 285 289 295 300 303 309 317 322 314 296 273 254 250 255 259 257 252 249 246 242 239 239 235 228 222 219 218 214 210 209 213 215 210 205 205 208 214 222 226 226 225 225 225 226 227 228 229 229 230 233 236 238 240 242 245 249 254 258 262 263 260 258 260 262 263 264 266 267 267 267
290 291 290 291 290 288 289 289 287 285 284 284 283 285 288 287 283 280 280 289 298 301 300 302 309 312 300 280 262 251 253 265 270 257 248 247 245 240 238 236 231 221 214 213 212 208 205 205 207 210 215 220 222 223 222 220 220 222 225 226 227 229 230 229 228 228 229 232 236 240 242 244 247 249 252 256 258 258 259 262 265 267 270 272 273 272 273
289 289 288 288 287 286 287 286 284 284 284 284 284 286 288 287 284 281 277 281 293 301 299 296 300 310 306 286 276 260 247 247 250 246 243 244 240 230 225 229 229 222 216 215 213 208 207 211 218 224 224 221 218 217 218 220 221 221 220 217 215 214 215 213 212 213 215 219 223 226 230 235 240 243 246 251 254 258 262 266 269 271 272 273 273 274 277
291 290 289 288 286 286 287 287 285 286 287 286 285 287 288 285 283 281 275 274 286 296 295 287 286 292 293 287 285 277 260 249 245 239 236 238 237 230 225 223 217 209 210 214 215 213 215 223 227 220 212 212 216 217 216 214 211 206 202 200 199 198 197 197 200 206 212 216 220 226 232 237 241 243 246 251 256 261 266 270 273 274 274 274 274 273 269
290 289 287 287 286 285 285 285 284 284 285 284 283 285 285 282 280 279 275 273 279 288 289 279 274 279 285 281 267 252 241 244 247 241 233 228 227 225 221 215 208 207 211 217 221 223 225 223 216 208 207 209 210 206 201 199 198 196 194 193 191 190 191 196 202 210 216 220 222 227 233 236 237 240 245 251 256 260 263 267 270 270 265 260 256 251 249
286 285 285 286 285 283 282 282 282 282 281 280 280 283 283 279 275 275 276 275 277 279 279 275 271 273 274 263 243 234 235 242 248 250 247 240 234 231 227 220 215 214 213 211 212 214 214 209 203 201 202 202 199 195 191 190 189 187 184 183 183 186 194 203 211 217 224 226 227 232 237 239 238 238 242 249 254 256 258 260 260 256 254 256 259 260 260